Home > Weather > Danmarkshavn > Past weeks

Flag for Greenland Past Weather in Danmarkshavn, Greenland — Yesterday and Last 2 Weeks

Now
44 °F

Sunny.


Feels Like: 38 °F
Forecast: 37 / 45 °F
Wind: 12 mph from Northwest

Location: Danmarkshavn

Current Time: Jul 31, 2016 at 7:36:00 AM

Latest Report: Jul 31, 2016 at 6:00 AM


Visibility: 31 mi

Pressure: 30.16 "Hg

Humidity: 79%

Dew Point: 38 °F

Location of DanmarkshavnLocation

Past Weather in Danmarkshavn — Graph

°F

Danmarkshavn Temperature Yesterday

Maximum temperature yesterday: 53 °F (at 4:00 PM)
Minimum temperature yesterday: 36 °F (at 2:00 AM)
Average temperature yesterday: 44 °F

High & Low Weather Summary for the Past Weeks

 TemperatureHumidityPressure
High59 °F (Jul 23, 11:00 PM)99% (Jul 17, 12:00 AM)30.31 "Hg (Jul 17, 12:00 AM)
Low30 °F (Jul 26, 3:00 AM)35% (Jul 28, 4:00 PM)29.64 "Hg (Jul 20, 4:00 PM)
Average43 °F75%30.01 "Hg
* Reported Jul 16 6:00 AM — Jul 31 6:00 AM, Danmarkshavn, Weather by CustomWeather, © 2016

Note: Actual official high and low records may vary slightly from our data, if they occured in-between our weather recording intervals... More about our weather records

Advertising

Danmarkshavn Weather History for the Previous 24 Hours

Scroll right to see more
 ConditionsComfort  
Time TempWeatherWind HumidityBarometerVisibility
6:00 AM
Sun, Jul 31
44 °FSunny.12 mph79%30.16 "Hg31 mi
5:00 AM45 °FSunny.10 mph76%30.16 "Hg31 mi
4:00 AM46 °FSunny.7 mph70%30.17 "Hg31 mi
3:00 AM47 °FSunny.5 mph67%30.17 "Hg31 mi
2:00 AM48 °FSunny.9 mph66%30.18 "Hg31 mi
1:00 AM43 °FSunny.No wind72%30.19 "Hg31 mi
12:00 AM43 °FSunny.1 mph71%30.19 "Hg31 mi
11:00 PM
Sat, Jul 30
44 °FSunny.1 mph70%30.19 "Hg31 mi
10:00 PM47 °FSunny.1 mph60%30.21 "Hg31 mi
9:00 PM44 °FSunny.1 mph66%30.21 "Hg31 mi
8:00 PM43 °FSunny.3 mph68%30.22 "Hg31 mi
7:00 PM45 °FSunny.6 mph63%30.22 "Hg28 mi
6:00 PM47 °FSunny.2 mph52%30.23 "Hg28 mi
5:00 PM45 °FSunny.6 mph59%30.24 "Hg31 mi
4:00 PM53 °FSunny.10 mph38%30.25 "Hg25 mi
3:00 PM51 °FSunny.12 mph42%30.26 "Hg22 mi
2:00 PM51 °FSunny.9 mph39%30.27 "HgN/A
1:00 PM49 °FSunny.10 mph48%30.27 "Hg28 mi
12:00 PM49 °FSunny.12 mph51%30.28 "Hg31 mi
11:00 AM48 °FSunny.12 mph55%30.28 "Hg31 mi
10:00 AM47 °FSunny.13 mph61%30.29 "Hg31 mi
9:00 AM46 °FSunny.9 mph62%30.30 "Hg31 mi
8:00 AM46 °FSunny.7 mph62%30.30 "Hg31 mi
7:00 AM40 °FSunny.1 mph76%30.30 "Hg31 mi
Weather by CustomWeather, © 2016

See weather overviewHow to use our weather pages